CCA1269 ZBAA-ZLYA

Flight info

Callsign CCA1269
Flight time N/A
Altitude 23600
Route BOTPU W47 P531
Aircraft B738/M-SDE2E3FGHIRWXY/LB1

Departure

Time 2026-05-06 04:32
Airport Beijing Capital International Airport (ZBAA)

Arrival

Time N/A
Airport Yan'an Nanniwan Airport (ZLYA)
Time Latitude Longitude Altitude Speed Heading
2026-05-06 04:14 40.06093 116.60699 118 ft 0 kts 64°
2026-05-06 04:24 40.06089 116.60686 117 ft 2 kts 68°
2026-05-06 04:24 40.06084 116.60668 117 ft 2 kts 75°
2026-05-06 04:25 40.06080 116.60649 117 ft 2 kts 81°
2026-05-06 04:25 40.06078 116.60629 117 ft 2 kts 85°
2026-05-06 04:25 40.06077 116.60610 117 ft 2 kts 83°
2026-05-06 04:25 40.06075 116.60590 117 ft 2 kts 84°
2026-05-06 04:26 40.06077 116.60571 117 ft 2 kts 117°
2026-05-06 04:26 40.06086 116.60556 117 ft 2 kts 142°
2026-05-06 04:26 40.06099 116.60547 117 ft 1 kts 167°
2026-05-06 04:26 40.06105 116.60545 117 ft 1 kts 174°
2026-05-06 04:27 40.06107 116.60545 117 ft 0 kts 172°
2026-05-06 04:28 40.06104 116.60546 117 ft 2 kts 172°
2026-05-06 04:28 40.06068 116.60551 117 ft 8 kts 173°
2026-05-06 04:28 40.05997 116.60563 117 ft 12 kts 173°
2026-05-06 04:29 40.05904 116.60580 117 ft 14 kts 173°
2026-05-06 04:29 40.05821 116.60590 117 ft 13 kts 174°
2026-05-06 04:29 40.05718 116.60607 117 ft 16 kts 173°
2026-05-06 04:29 40.05597 116.60617 117 ft 14 kts 188°
2026-05-06 04:30 40.05495 116.60562 117 ft 17 kts 218°
2026-05-06 04:30 40.05414 116.60436 117 ft 15 kts 235°
2026-05-06 04:30 40.05407 116.60317 117 ft 15 kts 316°
2026-05-06 04:30 40.05499 116.60260 117 ft 10 kts 348°
2026-05-06 04:31 40.05536 116.60178 117 ft 12 kts 267°
2026-05-06 04:31 40.05557 116.60057 117 ft 15 kts 301°
2026-05-06 04:31 40.05664 116.59998 117 ft 33 kts 354°
2026-05-06 04:31 40.06184 116.59918 117 ft 114 kts 352°
2026-05-06 04:32 40.07228 116.59759 143 ft 178 kts 353°
2026-05-06 04:32 40.08490 116.59543 867 ft 188 kts 353°
2026-05-06 04:32 40.09802 116.59337 1602 ft 203 kts 356°
2026-05-06 04:32 40.11123 116.59140 2293 ft 210 kts 355°
2026-05-06 04:33 40.12660 116.58903 2877 ft 224 kts 355°
2026-05-06 04:33 40.14263 116.58651 3443 ft 242 kts 355°
2026-05-06 04:33 40.15919 116.58389 4368 ft 244 kts 354°
2026-05-06 04:33 40.17650 116.58115 5004 ft 260 kts 354°
2026-05-06 04:34 40.19472 116.57827 5850 ft 266 kts 353°
2026-05-06 04:34 40.21276 116.57542 6773 ft 267 kts 353°
2026-05-06 04:34 40.23138 116.57245 7582 ft 273 kts 352°
2026-05-06 04:34 40.24995 116.56686 8374 ft 277 kts 337°
2026-05-06 04:35 40.26620 116.55385 9200 ft 278 kts 319°
2026-05-06 04:35 40.28045 116.53702 10007 ft 281 kts 315°
2026-05-06 04:35 40.29476 116.51915 10734 ft 288 kts 313°
2026-05-06 04:35 40.30774 116.49878 11256 ft 299 kts 300°
2026-05-06 04:36 40.31617 116.47356 11702 ft 311 kts 281°
2026-05-06 04:36 40.31805 116.44484 12187 ft 323 kts 270°
2026-05-06 04:36 40.31781 116.41512 12725 ft 335 kts 268°
2026-05-06 04:36 40.31733 116.38418 13206 ft 348 kts 269°
2026-05-06 04:37 40.31696 116.35232 13870 ft 355 kts 268°
2026-05-06 04:37 40.31678 116.32021 14727 ft 357 kts 268°
2026-05-06 04:37 40.31669 116.28754 15500 ft 361 kts 268°
2026-05-06 04:37 40.31665 116.25513 16354 ft 361 kts 268°
2026-05-06 04:38 40.31663 116.22208 17076 ft 365 kts 268°
2026-05-06 04:38 40.31661 116.18900 17814 ft 368 kts 268°
2026-05-06 04:38 40.31657 116.15521 18591 ft 370 kts 268°
2026-05-06 04:38 40.31653 116.12157 19295 ft 373 kts 268°
2026-05-06 04:39 40.31649 116.08813 20078 ft 374 kts 268°
2026-05-06 04:39 40.31642 116.05389 20683 ft 378 kts 268°
2026-05-06 04:39 40.31633 116.01975 21378 ft 380 kts 268°
2026-05-06 04:39 40.31622 115.98512 22014 ft 382 kts 268°
2026-05-06 04:40 40.31611 115.95055 22705 ft 383 kts 268°
2026-05-06 04:40 40.31599 115.91561 23293 ft 386 kts 268°
2026-05-06 04:40 40.31586 115.88020 23481 ft 391 kts 268°
2026-05-06 04:40 40.31530 115.84498 23504 ft 388 kts 265°
2026-05-06 04:41 40.31241 115.80984 23502 ft 385 kts 259°
2026-05-06 04:41 40.30556 115.77611 23514 ft 388 kts 251°
2026-05-06 04:41 40.29488 115.74376 23514 ft 389 kts 245°
2026-05-06 04:41 40.28118 115.71333 23509 ft 389 kts 239°
2026-05-06 04:42 40.26511 115.68456 23516 ft 391 kts 233°
2026-05-06 04:42 40.24614 115.65896 23507 ft 395 kts 226°
2026-05-06 04:42 40.22407 115.63699 23510 ft 403 kts 219°
2026-05-06 04:42 40.20338 115.62043 23507 ft 403 kts 215°
2026-05-06 04:43 40.17701 115.60168 23505 ft 404 kts 213°
2026-05-06 04:43 40.15185 115.58477 23516 ft 407 kts 212°
2026-05-06 04:43 40.12638 115.56799 23518 ft 404 kts 213°
2026-05-06 04:43 40.10174 115.55167 23528 ft 405 kts 213°
2026-05-06 04:44 40.07727 115.53336 23530 ft 401 kts 219°
2026-05-06 04:44 40.05588 115.51023 23542 ft 395 kts 229°
2026-05-06 04:44 40.03808 115.48281 23543 ft 394 kts 237°
2026-05-06 04:44 40.02363 115.45306 23552 ft 391 kts 243°
2026-05-06 04:45 40.01174 115.42184 23561 ft 389 kts 247°
2026-05-06 04:45 40.00190 115.38866 23794 ft 395 kts 254°
2026-05-06 04:45 39.99601 115.35386 24480 ft 395 kts 262°
2026-05-06 04:45 39.99403 115.31834 25192 ft 395 kts 267°
2026-05-06 04:46 39.99430 115.28303 25822 ft 395 kts 270°
2026-05-06 04:46 39.99566 115.24699 26237 ft 401 kts 271°
2026-05-06 04:46 39.99762 115.21104 26538 ft 409 kts 272°
2026-05-06 04:46 39.99987 115.17413 27228 ft 407 kts 272°
2026-05-06 04:47 40.00211 115.13765 27881 ft 405 kts 272°
2026-05-06 04:47 40.00423 115.10125 28428 ft 406 kts 272°
2026-05-06 04:47 40.00629 115.06438 28951 ft 406 kts 272°
2026-05-06 04:47 40.00821 115.02825 29400 ft 408 kts 271°
2026-05-06 04:48 40.01012 114.99118 29931 ft 409 kts 271°
2026-05-06 04:48 40.01197 114.95424 30464 ft 408 kts 271°
2026-05-06 04:48 40.01376 114.91767 31001 ft 407 kts 271°
2026-05-06 04:48 40.01552 114.88145 31472 ft 407 kts 271°
2026-05-06 04:49 40.01729 114.84502 31929 ft 405 kts 271°
2026-05-06 04:49 40.01905 114.80827 32056 ft 399 kts 271°
2026-05-06 04:49 40.02074 114.77315 32068 ft 387 kts 271°
2026-05-06 04:50 40.02397 114.70351 32060 ft 384 kts 271°
2026-05-06 04:50 40.02712 114.63394 32079 ft 387 kts 271°
2026-05-06 04:51 40.03020 114.56468 32086 ft 383 kts 271°
2026-05-06 04:51 40.03326 114.49496 32091 ft 385 kts 271°
2026-05-06 04:52 40.03631 114.42587 32086 ft 387 kts 271°
2026-05-06 04:52 40.03937 114.35621 32087 ft 386 kts 271°
2026-05-06 04:53 40.04220 114.29067 32083 ft 385 kts 270°
2026-05-06 04:53 40.04517 114.22121 32124 ft 391 kts 270°
2026-05-06 04:53 40.04665 114.18584 32432 ft 395 kts 270°
2026-05-06 04:54 40.04813 114.15049 33053 ft 389 kts 270°
2026-05-06 04:54 40.04985 114.11604 33741 ft 383 kts 271°
2026-05-06 04:54 40.05219 114.08140 34034 ft 384 kts 272°
2026-05-06 04:55 40.05756 114.01289 34074 ft 382 kts 272°
2026-05-06 04:55 40.06294 113.94469 34076 ft 380 kts 272°
2026-05-06 04:56 40.06801 113.87689 34071 ft 380 kts 271°
2026-05-06 04:56 40.07295 113.80913 34072 ft 380 kts 271°
2026-05-06 04:57 40.07772 113.74274 34087 ft 378 kts 271°
2026-05-06 04:57 40.08219 113.67992 34086 ft 379 kts 271°
2026-05-06 04:58 40.08684 113.61348 34101 ft 381 kts 271°
2026-05-06 04:58 40.09167 113.54434 34108 ft 381 kts 271°
2026-05-06 04:59 40.09640 113.47601 34117 ft 381 kts 271°
2026-05-06 04:59 40.10115 113.40715 34119 ft 380 kts 271°
2026-05-06 05:00 40.10574 113.33926 34119 ft 382 kts 271°
2026-05-06 05:00 40.11036 113.27025 34128 ft 379 kts 271°
2026-05-06 05:01 40.11489 113.20230 34122 ft 381 kts 271°
2026-05-06 05:01 40.11943 113.13375 34121 ft 379 kts 270°
2026-05-06 05:02 40.12386 113.06548 34593 ft 382 kts 270°
2026-05-06 05:02 40.12611 113.03092 35368 ft 375 kts 270°
2026-05-06 05:02 40.12829 112.99784 36107 ft 367 kts 270°
2026-05-06 05:02 40.13046 112.96467 36612 ft 365 kts 269°
2026-05-06 05:03 40.13255 112.93191 36841 ft 367 kts 270°
2026-05-06 05:03 40.13465 112.89876 37173 ft 367 kts 270°
2026-05-06 05:03 40.13678 112.86534 37588 ft 365 kts 270°
2026-05-06 05:03 40.13885 112.83288 38096 ft 360 kts 270°
2026-05-06 05:04 40.14090 112.80051 38145 ft 361 kts 270°
2026-05-06 05:04 40.14494 112.73532 38157 ft 363 kts 269°
2026-05-06 05:05 40.14896 112.67056 38154 ft 361 kts 269°
2026-05-06 05:05 40.15293 112.60544 38162 ft 360 kts 269°